Theta_e
342 335 332 334 337 337 336 336 336 335 335 336 332 325 325 324 318 311 309 308 307 307 311 317 319 321 322 319 315 315 316 315 313 311 310 310 310 310 311 313 323 320 319
341 334 332 333 337 336 336 336 335 335 336 330 324 325 323 318 311 308 307 308 309 314 318 320 320 320 318 316 316 316 317 317 317 317 321 317 311 310 310 310 310 312 313
341 336 331 331 335 336 336 336 336 335 326 324 325 322 316 310 308 308 309 310 314 319 321 321 319 317 315 316 317 317 317 316 316 319 322 322 317 313 313 311 310 310 310
340 336 335 328 329 335 336 336 329 324 325 323 318 314 310 308 309 310 310 314 316 318 320 319 316 315 315 316 317 316 315 315 315 321 322 322 321 312 312 312 311 311 319
339 336 334 325 324 324 324 323 324 325 321 315 312 309 308 310 311 311 311 314 316 316 318 316 315 316 317 317 317 315 316 315 320 321 321 322 321 312 311 310 309 309 310
340 337 329 325 323 322 323 326 325 320 313 311 309 308 310 310 310 311 312 315 317 317 316 316 316 317 318 318 316 316 316 316 321 321 322 321 320 309 307 307 307 307 307
338 337 328 325 324 324 327 326 320 313 311 309 308 310 310 310 310 312 315 316 316 316 316 317 317 318 318 317 316 317 316 316 320 320 320 321 318 308 306 305 304 304 304
335 336 332 329 327 327 327 321 314 311 309 308 310 310 310 310 312 314 316 316 316 317 316 317 317 317 317 317 317 317 317 316 319 319 319 319 311 308 305 304 303 302 302
332 335 333 332 333 332 324 316 311 309 308 310 310 310 311 312 314 315 316 315 315 315 316 316 317 317 318 318 318 318 316 314 318 318 318 319 312 311 305 303 302 301 301
335 334 332 333 334 327 319 314 310 308 309 311 310 310 312 313 314 314 314 314 315 316 317 317 318 319 319 319 318 318 316 314 316 316 317 314 310 313 307 304 303 302 302
334 334 332 332 324 323 318 311 309 310 311 311 310 312 313 313 314 314 315 316 316 317 318 319 319 320 320 319 319 317 313 314 314 314 315 306 308 309 307 306 304 302 301
334 333 332 329 328 319 314 312 313 315 313 310 311 313 314 314 320 314 314 315 317 319 319 320 320 320 319 318 318 314 308 307 310 311 310 302 303 306 309 307 306 304 302
331 329 325 326 319 317 315 312 312 316 317 315 310 313 314 314 314 314 315 317 319 320 320 320 320 320 320 318 318 309 305 306 305 306 304 300 300 306 311 308 307 306 303
329 327 323 322 319 318 317 317 315 311 313 311 310 311 313 313 313 316 320 319 320 321 321 321 321 321 319 317 316 307 304 303 303 304 305 299 299 301 311 309 306 305 306
325 324 321 319 320 318 317 313 314 318 314 311 311 311 312 312 313 315 319 320 321 321 321 321 321 319 319 317 309 305 302 300 299 303 308 298 298 302 311 310 308 306 306
324 323 322 321 318 315 316 320 314 311 314 311 311 311 312 313 317 319 320 321 322 322 322 321 319 319 316 311 306 303 301 300 299 301 306 303 299 300 303 303 304 305 306
321 318 318 318 317 319 323 318 314 316 313 312 312 314 320 322 324 324 323 323 323 322 322 321 320 318 313 306 304 303 301 300 299 299 303 305 305 300 300 302 302 302 303
319 319 320 323 322 323 323 315 313 314 314 315 317 321 323 324 323 323 323 323 323 322 321 320 318 314 307 305 304 303 302 300 298 298 300 301 303 301 301 299 299 300 300
321 320 322 326 324 322 321 318 314 314 314 320 320 324 325 324 322 322 323 323 322 322 320 319 314 308 307 306 305 305 303 303 301 301 300 298 298 299 298 298 295 294 294
324 325 326 327 327 324 323 317 314 315 321 324 324 325 324 323 322 322 323 323 322 321 319 315 308 308 307 307 305 305 304 304 303 302 301 300 300 298 298 298 298 298 296
325 326 326 327 328 326 324 322 321 322 324 324 325 324 321 321 323 323 323 323 321 318 316 308 308 307 308 308 307 307 305 304 303 302 302 300 300 299 299 298 298 298 297
328 327 327 329 329 327 326 323 321 320 323 325 320 323 323 323 324 323 322 322 320 318 311 309 308 308 308 307 306 306 307 306 304 303 302 300 300 299 299 298 298 297 297
327 327 328 330 329 328 327 323 323 324 325 324 323 324 323 324 322 321 322 321 320 313 309 309 309 309 308 306 306 305 303 306 302 301 300 300 299 300 299 299 298 297 297
327 326 328 330 329 328 327 326 324 324 325 325 324 323 324 324 321 320 321 320 314 309 309 310 309 308 307 305 305 306 300 298 299 300 300 300 299 299 299 299 298 298 297
328 327 326 328 329 329 328 328 326 326 326 327 323 323 324 323 320 320 319 317 311 309 309 309 308 307 307 308 307 304 299 300 299 299 300 300 298 298 298 298 297 297 296
329 329 327 327 327 328 327 327 327 327 327 325 324 323 324 322 319 319 317 314 311 310 309 310 309 308 308 307 306 305 300 299 298 298 298 298 297 297 297 297 296 296 295
Wind_Speed
23 27 30 28 29 31 33 32 30 27 25 23 21 19 17 14 12 13 16 18 18 20 22 23 22 22 22 21 20 21 20 20 21 21 20 19 19 17 16 15 17 14 11
28 29 32 30 30 32 33 32 30 27 25 24 21 18 16 14 15 18 19 20 22 24 23 23 22 21 21 21 19 19 19 20 18 19 21 19 19 18 17 15 13 12 11
28 30 33 33 32 33 33 32 30 29 26 23 21 18 17 19 21 21 21 22 24 24 24 24 21 20 20 20 18 18 17 17 17 21 19 16 17 16 16 15 14 12 10
28 29 31 34 34 34 34 34 31 29 25 23 21 20 21 23 23 22 22 23 23 23 23 22 21 19 19 18 16 17 16 15 16 21 13 14 15 14 13 12 11 11 12
31 31 32 36 36 35 35 33 31 28 25 23 23 24 25 24 24 24 25 24 24 24 22 21 19 18 18 17 15 14 14 14 20 14 13 13 11 13 12 10 10 8 7
30 33 36 36 35 35 34 32 29 26 25 25 26 27 26 26 27 27 27 25 24 23 22 20 18 17 16 14 12 12 13 15 15 12 12 13 11 13 13 12 10 9 8
33 31 37 36 36 36 34 32 29 27 27 28 28 28 28 29 29 28 27 26 23 21 20 19 18 16 14 12 10 10 12 14 10 10 10 10 11 13 13 13 12 11 9
19 29 33 33 35 37 35 31 28 28 30 31 30 30 29 29 29 28 26 24 22 20 19 18 17 14 11 10 9 9 12 13 10 10 9 8 12 12 13 13 13 12 11
23 25 29 27 30 30 30 28 29 30 30 30 31 30 29 29 27 26 24 22 20 19 17 16 14 12 11 9 8 9 11 12 8 8 9 5 11 9 12 13 13 12 11
29 33 34 30 36 37 33 22 24 27 28 29 30 31 30 28 25 23 21 19 17 17 16 14 13 11 8 8 7 9 11 13 6 8 7 6 11 7 11 11 12 11 10
27 30 35 31 31 36 39 37 24 25 26 27 28 30 29 27 23 22 19 17 15 14 13 12 10 8 6 6 7 9 10 5 7 6 4 9 8 9 11 11 9 9 10
23 30 35 35 33 39 43 42 27 22 25 25 29 29 26 25 18 19 17 14 13 12 11 10 8 6 6 6 8 8 7 8 6 6 5 8 8 9 10 10 8 8 9
28 31 34 34 42 42 41 41 33 32 26 26 29 27 25 24 21 18 17 15 14 12 11 9 6 4 3 6 7 8 10 8 7 5 8 7 6 5 7 9 9 9 8
33 35 37 37 39 40 39 37 30 23 24 28 29 28 26 24 21 17 16 15 14 12 10 7 4 1 3 7 9 10 10 7 5 5 7 7 4 2 5 6 10 12 12
28 29 32 39 35 36 42 36 24 25 26 27 26 26 25 21 19 17 16 16 14 11 9 7 4 2 5 10 9 9 9 9 9 5 4 6 3 3 5 2 3 9 10
27 36 35 35 35 30 23 22 24 24 24 26 26 24 21 19 18 16 15 15 13 11 10 9 3 4 5 7 8 8 7 9 8 4 3 5 3 3 8 9 9 6 6
24 27 37 35 27 19 17 18 19 17 22 24 24 23 20 19 16 17 16 15 14 14 10 7 6 8 7 7 6 8 9 8 6 3 3 1 4 4 7 11 13 14 13
28 30 25 18 19 18 15 20 19 20 23 24 23 22 21 18 18 17 16 16 16 12 11 9 7 7 5 1 2 5 6 5 4 5 2 1 1 3 9 11 14 15 16
28 24 20 15 15 15 14 14 16 19 22 22 24 22 20 19 18 17 16 15 14 13 12 10 9 5 3 2 1 6 6 3 4 3 3 5 6 7 6 13 12 15 17
24 20 18 16 14 14 15 16 18 20 19 20 22 21 19 19 17 17 16 15 16 15 14 12 9 7 5 3 3 6 5 5 5 5 6 5 7 8 6 8 10 11 19
24 23 21 19 16 15 17 17 18 19 19 20 23 22 20 21 20 19 18 18 18 16 15 13 10 7 4 7 6 8 8 7 8 8 9 8 9 9 8 9 9 11 12
26 26 23 21 18 17 17 18 17 19 18 19 23 23 24 24 19 18 20 19 19 18 17 14 11 8 5 8 3 7 6 9 9 11 12 11 11 9 10 11 12 13 13
27 27 25 22 20 20 18 17 16 16 16 19 25 26 25 21 20 20 20 20 21 19 18 16 14 12 8 8 7 5 3 8 13 11 10 10 11 11 12 13 14 15 15
27 26 27 23 22 22 23 19 20 19 18 18 23 23 23 22 22 22 22 24 22 22 20 18 17 13 13 6 10 13 9 11 9 11 9 12 12 13 13 15 16 16 16
25 26 26 26 24 23 24 25 23 22 19 19 22 23 24 24 25 25 26 26 25 24 22 20 20 19 14 15 15 12 13 11 13 13 16 13 15 16 15 16 17 17 17
27 27 27 27 26 26 28 29 28 24 22 26 27 26 26 26 29 28 27 27 26 26 26 25 24 19 13 18 16 18 11 12 13 15 17 17 17 17 16 16 15 15 16
Wind_Direction
169 170 167 166 167 168 168 168 166 165 162 159 155 151 149 142 137 133 131 128 126 123 119 114 110 108 106 102 97 91 87 84 81 80 77 77 74 71 69 69 66 60 64
167 167 168 167 169 168 169 168 168 166 161 158 156 156 153 146 139 136 133 130 128 123 118 116 114 111 106 102 96 87 82 80 78 76 63 62 70 68 67 65 58 50 49
164 166 170 169 167 169 170 169 167 163 161 159 158 160 154 144 139 136 134 130 126 124 121 118 114 111 106 100 96 90 82 77 75 76 77 65 61 57 54 53 53 51 44
167 166 169 172 169 167 165 166 164 162 161 162 161 156 149 143 139 137 132 130 128 125 122 121 117 113 107 102 94 84 75 68 68 74 71 65 58 55 49 43 43 44 43
167 166 175 173 171 167 167 166 165 165 164 160 158 152 147 143 141 139 135 131 127 124 127 123 118 116 109 102 93 81 70 62 69 69 71 68 57 46 37 38 28 21 17
167 165 176 174 174 171 169 168 168 166 161 158 153 150 146 146 142 138 133 131 130 130 128 123 120 118 113 103 93 79 65 60 71 66 57 56 54 33 31 30 30 28 13
174 172 171 175 177 173 171 169 166 162 158 154 153 150 149 145 141 137 136 137 135 131 128 124 124 119 111 102 91 74 57 60 71 62 56 54 47 30 28 30 26 25 20
194 173 172 177 178 174 170 165 160 157 155 155 152 151 150 144 141 139 140 137 136 134 132 130 126 120 115 100 78 61 45 56 54 60 62 53 29 26 26 29 29 25 25
182 179 175 176 171 169 157 154 154 152 154 153 155 152 147 142 142 141 140 140 139 138 137 133 127 122 112 84 66 46 34 43 58 57 63 46 18 29 23 21 25 27 29
176 178 173 172 170 149 135 136 144 150 150 157 154 151 148 145 145 141 141 146 144 140 139 135 132 113 97 74 57 35 26 41 47 44 36 28 10 33 13 12 18 26 31
170 177 173 181 132 144 141 132 151 152 152 155 156 151 150 147 145 152 154 150 150 146 143 142 128 113 84 63 38 19 36 41 39 46 23 11 360 356 350 355 18 28 25
175 171 172 165 157 148 139 143 145 145 146 153 159 157 153 149 147 157 155 153 157 151 152 143 136 108 82 43 12 13 18 25 31 34 344 347 338 334 330 344 9 29 24
166 150 148 155 152 152 150 147 152 154 156 171 165 164 163 163 161 164 158 165 157 165 158 150 136 111 13 357 343 6 12 19 11 11 319 318 313 315 310 332 345 1 17
167 162 154 153 146 140 148 153 154 169 177 170 172 175 173 173 171 165 168 167 175 176 170 172 164 324 329 354 349 349 345 350 356 353 327 316 308 273 275 315 329 343 341
150 146 139 143 144 152 144 146 167 186 174 178 177 178 182 180 180 181 177 180 185 183 187 191 200 290 340 332 328 332 338 341 334 354 345 347 330 194 209 236 304 324 315
147 151 148 149 144 143 156 177 179 181 182 181 181 184 186 186 190 192 194 196 196 195 205 207 216 309 299 309 317 330 338 339 341 22 67 352 337 279 245 269 275 266 289
146 158 149 137 157 166 171 181 183 183 184 186 185 188 188 194 196 207 208 206 205 211 210 214 250 288 287 301 323 331 343 345 336 353 29 70 348 287 280 276 279 281 273
153 156 165 175 173 175 179 184 187 191 189 188 189 192 197 205 214 219 219 210 211 216 216 219 244 257 273 266 327 336 337 334 306 319 333 30 250 315 314 283 276 280 280
165 171 179 182 180 184 189 190 196 195 193 195 201 207 210 220 223 227 221 216 215 216 219 222 231 228 223 182 293 326 317 272 304 270 278 301 260 308 289 295 302 295 287
178 186 192 195 196 199 201 201 203 203 201 203 209 219 224 225 228 224 217 215 214 214 215 217 224 224 192 250 291 309 301 255 261 244 275 278 267 297 302 299 301 303 305
200 202 208 207 209 205 204 201 201 200 201 209 217 223 227 230 228 213 215 215 214 211 213 219 226 227 243 280 312 316 298 261 254 246 268 277 275 288 285 300 310 299 302
202 205 206 209 212 207 204 204 207 207 209 217 225 231 231 230 219 215 220 216 214 212 218 221 225 220 228 271 309 315 308 286 272 265 270 271 276 271 286 296 297 306 304
208 210 211 212 213 211 208 208 209 205 213 220 229 234 234 231 219 223 222 222 221 220 219 226 234 236 220 248 282 277 286 285 297 272 262 272 272 277 275 292 295 301 304
213 215 215 214 215 218 221 212 215 214 222 230 239 240 239 227 222 226 227 227 223 218 222 236 240 232 238 245 264 291 274 267 284 290 272 290 284 285 278 284 290 294 297
212 212 214 214 216 218 220 220 225 224 230 232 237 241 239 229 225 226 228 227 224 225 232 234 239 247 256 275 281 295 283 266 272 272 291 289 286 289 286 284 286 287 293
215 217 218 216 218 220 228 229 228 228 227 238 246 242 238 233 228 226 227 227 230 230 234 240 248 250 294 287 279 292 260 261 270 278 282 285 288 290 286 281 285 283 281